Regional Weather Roundup
Issued by NWS

Home | Current Version | Previous Version | Text Only | Print | Product List | Glossary Off
Versions: 1 2 3 4 5 6 7 8 9 10 11 12 13 14 15 16 17 18 19 20 21 22 23 24 25 26 27 28 29 30 31 32 33 34 35 36 37 38 39 40 41 42 43 44 45 46 47 48 49 50

000
ASUS43 KLMK 310502
RWRKY
KENTUCKY REGIONAL WEATHER ROUNDUP
NATIONAL WEATHER SERVICE LOUISVILLE KY
100 AM EDT MON AUG 31 2015

NOTE "FAIR" INDICATES FEW OR NO CLOUDS BELOW 12,000 FEET
WITH NO SIGNIFICANT WEATHER AND/OR OBSTRUCTIONS TO VISIBILITY.

KYZ001>023-026-027-061>063-070>075-310600-
WESTERN AND SOUTH CENTRAL KENTUCKY

CITY           SKY/WX    TMP DP  RH WIND       PRES   REMARKS
PADUCAH        CLEAR     70  67  90 CALM      30.05S
HENDERSON      MOCLDY    68  64  88 S5        30.05S
OWENSBORO      PTCLDY    70  68  93 SE3       30.08R
HOPKINSVILLE   PTCLDY    71  69  94 SE5       30.08R
BOWLING GREEN  PTCLDY    68  64  87 CALM      30.09F
GLASGOW        CLEAR     63  63 100 CALM      30.10S
$$

KYZ024-025-028>034-038-045-046-053-310600-
NORTH CENTRAL KENTUCKY

CITY           SKY/WX    TMP DP  RH WIND       PRES   REMARKS
LOUISVILLE/SDF MOCLDY    73  67  81 SE5       30.08R
LOUISVILLE/LOU MOCLDY    72  68  87 CALM      30.09S
FORT KNOX      PTCLDY    69  65  89 CALM      30.08R
$$

KYZ035>037-039>044-047>052-055>060-089>105-310600-
NORTHEAST KENTUCKY

CITY           SKY/WX    TMP DP  RH WIND       PRES   REMARKS
LEXINGTON      MOCLDY    72  65  78 S5        30.11S
COVINGTON      PTCLDY    70  67  90 S5        30.09S
FRANKFORT      PTCLDY    71  66  84 CALM      30.09S
$$

KYZ054-064>069-076>088-106>120-310600-
SOUTHEAST KENTUCKY

CITY           SKY/WX    TMP DP  RH WIND       PRES   REMARKS
JACKSON        CLOUDY    71  64  78 CALM      30.14R
LONDON         MOCLDY    70  65  84 CALM      30.13S
SOMERSET       NOT AVBL
MIDDLESBORO    CLOUDY    68  68  99 CALM      30.14S
MONTICELLO     PTCLDY    64  64 100 CALM      30.15R
$$




USA.gov is the U.S. government's official web portal to all federal, state and local government web resources and services.